Date,TemperatureHighF,TemperatureAvgF,TemperatureLowF,DewpointHighF,DewpointAvgF,DewpointLowF,HumidityHigh,HumidityAvg,HumidityLow,PressureMaxIn,PressureMinIn,WindSpeedMaxMPH,WindSpeedAvgMPH,GustSpeedMaxMPH,PrecipitationSumIn
2013-5-1,88.0,78.3,68.6,55.2,35.3,19.7,36,22,12,29.81,29.70,8,2,13,0.00
2013-5-2,84.8,76.8,69.2,54.7,44.1,38.7,38,32,21,29.75,29.69,6,1,10,0.00
2013-5-3,84.3,75.3,65.3,55.3,46.1,37.2,53,37,20,29.76,29.67,5,1,9,0.00
2013-5-4,85.4,75.6,64.2,51.7,39.3,22.8,52,30,15,29.83,29.74,6,2,20,0.00
2013-5-5,82.8,75.1,68.4,48.3,32.7,20.6,45,23,13,29.83,29.78,6,2,12,0.00
2013-5-6,79.6,71.3,62.8,54.4,48.3,43.1,62,45,31,29.83,29.75,6,2,10,0.00
2013-5-7,82.5,71.9,63.3,60.9,52.9,41.3,77,53,35,29.82,29.74,5,2,10,0.00
2013-5-8,83.3,73.8,62.9,53.7,46.2,39.0,51,38,25,29.80,29.73,5,1,10,0.00
2013-5-9,81.0,70.1,63.1,61.8,51.8,38.2,86,54,32,29.82,29.73,6,2,11,0.00
2013-5-10,80.5,70.1,59.4,62.4,54.2,40.3,89,61,28,29.82,29.72,6,1,11,0.00
2013-5-11,75.7,67.3,61.1,60.1,52.5,45.7,91,60,43,29.80,29.74,7,3,17,0.00
2013-5-12,70.6,62.2,56.9,55.5,51.5,44.8,90,69,51,29.87,29.76,6,2,16,0.00
2013-5-13,78.1,66.6,55.9,59.9,50.3,44.2,91,59,32,29.86,29.67,9,2,17,0.06
2013-5-14,72.5,62.9,57.1,56.6,48.8,37.9,89,63,29,29.78,29.72,11,4,22,0.00
2013-5-15,66.5,59.7,54.5,54.8,51.6,46.4,91,76,54,29.88,29.73,9,3,14,0.01
2013-5-16,70.6,61.7,56.4,56.9,54.5,53.0,92,78,59,29.98,29.88,5,2,14,0.00
2013-5-17,77.4,66.3,55.9,61.4,53.1,46.6,87,64,41,30.03,29.95,5,1,9,0.00
2013-5-18,87.4,74.2,61.5,60.2,48.2,37.3,62,41,21,30.02,29.88,5,1,8,0.00
2013-5-19,85.0,77.5,70.0,55.7,47.7,43.6,46,35,27,29.88,29.72,5,1,8,0.00
2013-5-20,77.9,70.2,61.4,60.0,49.4,30.8,90,51,24,29.77,29.68,8,3,15,0.00
2013-5-21,81.1,70.1,59.1,60.6,55.8,49.4,94,63,36,29.84,29.76,5,2,11,0.00
2013-5-22,86.3,74.3,63.2,54.8,48.5,42.9,58,42,24,29.87,29.80,5,1,11,0.00
2013-5-23,90.3,76.9,63.7,57.8,46.0,36.9,51,35,17,29.87,29.79,4,1,7,0.00
2013-5-24,94.7,80.7,67.5,59.4,43.3,15.7,44,28,10,29.84,29.77,5,1,9,0.00
2013-5-25,80.9,71.4,61.2,62.4,54.8,17.4,90,59,10,29.86,29.78,6,2,11,0.00
2013-5-26,75.3,64.8,57.8,58.1,55.1,49.1,91,73,41,29.90,29.83,9,3,14,0.00
2013-5-27,76.6,66.4,57.4,59.3,55.5,48.1,92,71,38,29.95,29.88,7,3,12,0.01
2013-5-28,79.6,68.9,58.7,59.1,49.7,40.1,94,56,27,29.96,29.91,8,3,13,0.01
2013-5-29,86.6,73.7,58.3,44.9,32.7,17.5,56,27,9,29.94,29.80,5,1,7,0.00
2013-5-30,93.9,78.3,65.2,64.5,39.2,10.6,88,33,8,29.80,29.65,11,4,19,0.00
2013-5-31,89.0,75.2,61.4,58.3,49.7,35.1,80,46,17,29.78,29.70,4,1,11,0.00